NSZ3612 EKCH-LPPR

Flight info

Callsign NSZ3612
Flight time 3h 31m
Altitude 34000
Route LANGO DCT SISGA/N0438F350 DCT KOVIN DCT NIDUV DCT KIHVI UN872 ERIGA UN741 AZFIC DCT LOTEE DCT ELTEP/N0367F230 T328 ASPOR
Aircraft B738/M-SDE2E3FGHIRWXY/LB1

Departure

Time 2026-04-26 09:42
Airport Copenhagen Kastrup Airport (EKCH)

Arrival

Time 2026-04-26 13:13
Airport Francisco de Sá Carneiro Airport (LPPR)
Time Latitude Longitude Altitude Speed Heading
2026-04-26 09:27 55.62599 12.63763 26 ft 6 kts 212°
2026-04-26 09:27 55.62573 12.63754 23 ft 0 kts 175°
2026-04-26 09:30 55.62571 12.63755 23 ft 1 kts 172°
2026-04-26 09:30 55.62554 12.63764 24 ft 3 kts 162°
2026-04-26 09:30 55.62528 12.63778 24 ft 5 kts 162°
2026-04-26 09:30 55.62493 12.63799 23 ft 6 kts 158°
2026-04-26 09:31 55.62448 12.63854 21 ft 9 kts 137°
2026-04-26 09:31 55.62405 12.63954 21 ft 11 kts 124°
2026-04-26 09:31 55.62365 12.64061 21 ft 10 kts 123°
2026-04-26 09:31 55.62346 12.64112 20 ft 0 kts 123°
2026-04-26 09:33 55.62344 12.64118 19 ft 3 kts 123°
2026-04-26 09:34 55.62326 12.64167 21 ft 6 kts 123°
2026-04-26 09:34 55.62305 12.64224 21 ft 6 kts 123°
2026-04-26 09:34 55.62284 12.64281 20 ft 5 kts 122°
2026-04-26 09:34 55.62263 12.64337 22 ft 5 kts 125°
2026-04-26 09:35 55.62237 12.64383 21 ft 5 kts 145°
2026-04-26 09:35 55.62201 12.64406 20 ft 6 kts 162°
2026-04-26 09:35 55.62164 12.64423 23 ft 6 kts 168°
2026-04-26 09:35 55.62125 12.64437 24 ft 6 kts 168°
2026-04-26 09:36 55.62078 12.64454 23 ft 9 kts 169°
2026-04-26 09:36 55.61998 12.64468 23 ft 14 kts 194°
2026-04-26 09:36 55.61896 12.64509 27 ft 17 kts 166°
2026-04-26 09:36 55.61765 12.64552 26 ft 21 kts 170°
2026-04-26 09:37 55.61627 12.64507 23 ft 20 kts 203°
2026-04-26 09:37 55.61510 12.64376 23 ft 20 kts 213°
2026-04-26 09:37 55.61397 12.64248 23 ft 19 kts 213°
2026-04-26 09:37 55.61287 12.64122 24 ft 18 kts 213°
2026-04-26 09:38 55.61198 12.64020 24 ft 18 kts 213°
2026-04-26 09:38 55.61096 12.63904 25 ft 17 kts 213°
2026-04-26 09:38 55.60999 12.63793 24 ft 16 kts 213°
2026-04-26 09:38 55.60905 12.63685 24 ft 16 kts 213°
2026-04-26 09:39 55.60814 12.63579 24 ft 15 kts 213°
2026-04-26 09:39 55.60727 12.63478 23 ft 15 kts 213°
2026-04-26 09:39 55.60648 12.63371 23 ft 14 kts 219°
2026-04-26 09:39 55.60575 12.63263 23 ft 13 kts 220°
2026-04-26 09:40 55.60504 12.63161 25 ft 13 kts 216°
2026-04-26 09:40 55.60422 12.63137 25 ft 13 kts 156°
2026-04-26 09:40 55.60363 12.63246 24 ft 12 kts 129°
2026-04-26 09:40 55.60364 12.63380 29 ft 12 kts 47°
2026-04-26 09:41 55.60392 12.63423 24 ft 0 kts 40°
2026-04-26 09:41 55.60507 12.63605 24 ft 55 kts 41°
2026-04-26 09:41 55.60775 12.64024 28 ft 98 kts 40°
2026-04-26 09:41 55.61577 12.65154 26 ft 159 kts 31°
2026-04-26 09:42 55.62156 12.65797 310 ft 165 kts 32°
2026-04-26 09:42 55.63008 12.67255 930 ft 176 kts 49°
2026-04-26 09:42 55.63792 12.68952 1792 ft 172 kts 34°
2026-04-26 09:42 55.64801 12.70328 2223 ft 196 kts 34°
2026-04-26 09:43 55.65918 12.71942 2455 ft 219 kts 36°
2026-04-26 09:43 55.67058 12.73629 2918 ft 227 kts 36°
2026-04-26 09:43 55.68322 12.75512 3397 ft 241 kts 37°
2026-04-26 09:43 55.69617 12.77454 4013 ft 250 kts 40°
2026-04-26 09:44 55.70587 12.79986 4864 ft 257 kts 68°
2026-04-26 09:44 55.70770 12.83168 5662 ft 267 kts 96°
2026-04-26 09:44 55.70011 12.86216 6357 ft 279 kts 129°
2026-04-26 09:44 55.68408 12.88158 7083 ft 285 kts 158°
2026-04-26 09:45 55.66503 12.89346 7718 ft 293 kts 161°
2026-04-26 09:45 55.64547 12.90524 8370 ft 300 kts 161°
2026-04-26 09:45 55.62541 12.91660 8988 ft 307 kts 171°
2026-04-26 09:45 55.60415 12.91560 9638 ft 306 kts 200°
2026-04-26 09:46 55.58536 12.89894 10307 ft 299 kts 226°
2026-04-26 09:46 55.57037 12.87316 10702 ft 310 kts 232°
2026-04-26 09:46 55.55499 12.84433 10872 ft 332 kts 232°
2026-04-26 09:46 55.53883 12.81423 11090 ft 351 kts 232°
2026-04-26 09:47 55.52307 12.78108 11547 ft 352 kts 246°
2026-04-26 09:47 55.51441 12.74171 12208 ft 340 kts 266°
2026-04-26 09:47 55.51207 12.70051 12973 ft 336 kts 272°
2026-04-26 09:47 55.51070 12.65925 13649 ft 339 kts 274°
2026-04-26 09:48 55.50942 12.61734 14296 ft 343 kts 274°
2026-04-26 09:48 55.50807 12.57529 14912 ft 345 kts 274°
2026-04-26 09:48 55.50660 12.53295 15548 ft 347 kts 274°
2026-04-26 09:48 55.50503 12.49016 16174 ft 349 kts 274°
2026-04-26 09:49 55.50341 12.44724 16785 ft 352 kts 273°
2026-04-26 09:49 55.50174 12.40395 17402 ft 354 kts 274°
2026-04-26 09:49 55.50006 12.36070 17990 ft 356 kts 273°
2026-04-26 09:49 55.49832 12.31675 18585 ft 359 kts 273°
2026-04-26 09:50 55.49635 12.27272 19087 ft 364 kts 269°
2026-04-26 09:50 55.48908 12.22884 19577 ft 383 kts 252°
2026-04-26 09:50 55.47449 12.18843 20108 ft 395 kts 242°
2026-04-26 09:50 55.45793 12.14972 20608 ft 399 kts 240°
2026-04-26 09:51 55.44100 12.11125 21070 ft 402 kts 240°
2026-04-26 09:51 55.42382 12.07227 21543 ft 404 kts 240°
2026-04-26 09:51 55.40661 12.03295 22031 ft 406 kts 240°
2026-04-26 09:51 55.38943 11.99337 22521 ft 408 kts 240°
2026-04-26 09:52 55.37225 11.95357 22979 ft 411 kts 240°
2026-04-26 09:52 55.33756 11.87309 23866 ft 415 kts 240°
2026-04-26 09:52 55.31999 11.83237 24249 ft 417 kts 240°
2026-04-26 09:53 55.30241 11.79171 24649 ft 418 kts 240°
2026-04-26 09:53 55.28482 11.75109 25053 ft 419 kts 240°
2026-04-26 09:53 55.26702 11.71009 25438 ft 420 kts 240°
2026-04-26 09:53 55.24955 11.66969 25809 ft 421 kts 241°
2026-04-26 09:54 55.23292 11.62755 26165 ft 420 kts 244°
2026-04-26 09:54 55.21711 11.58454 26515 ft 420 kts 244°
2026-04-26 09:54 55.20153 11.54124 26868 ft 421 kts 245°
2026-04-26 09:54 55.18587 11.49773 27223 ft 422 kts 244°
2026-04-26 09:55 55.17005 11.45422 27551 ft 424 kts 244°
2026-04-26 09:55 55.15416 11.41090 27877 ft 426 kts 244°
2026-04-26 09:55 55.13807 11.36740 28192 ft 427 kts 243°
2026-04-26 09:55 55.12176 11.32353 28504 ft 429 kts 243°
2026-04-26 09:56 55.10554 11.28003 28802 ft 430 kts 243°
2026-04-26 09:56 55.08912 11.23610 29105 ft 431 kts 243°
2026-04-26 09:56 55.07266 11.19212 29400 ft 433 kts 243°
2026-04-26 09:56 55.05618 11.14818 29691 ft 434 kts 243°
2026-04-26 09:57 55.03967 11.10423 30065 ft 433 kts 243°
2026-04-26 09:57 55.02325 11.06059 30501 ft 430 kts 242°
2026-04-26 09:57 55.00687 11.01715 30885 ft 427 kts 242°
2026-04-26 09:57 54.99060 10.97399 31229 ft 425 kts 242°
2026-04-26 09:58 54.97457 10.93152 31523 ft 424 kts 242°
2026-04-26 09:58 54.95817 10.88822 31831 ft 423 kts 242°
2026-04-26 09:58 54.94149 10.84600 32164 ft 425 kts 237°
2026-04-26 09:58 54.92217 10.80782 32485 ft 427 kts 232°
2026-04-26 09:59 54.90147 10.77052 32789 ft 426 kts 231°
2026-04-26 09:59 54.88058 10.73397 33104 ft 426 kts 231°
2026-04-26 09:59 54.85974 10.69761 33412 ft 424 kts 231°
2026-04-26 09:59 54.83905 10.66129 33733 ft 422 kts 231°
2026-04-26 10:00 54.81865 10.62518 34042 ft 420 kts 231°
2026-04-26 10:00 54.79817 10.58868 34321 ft 419 kts 231°
2026-04-26 10:00 54.75738 10.51553 34346 ft 424 kts 231°
2026-04-26 10:01 54.71682 10.44286 34333 ft 419 kts 231°
2026-04-26 10:01 54.67655 10.37092 34343 ft 415 kts 231°
2026-04-26 10:02 54.63649 10.29957 34332 ft 411 kts 231°
2026-04-26 10:02 54.59662 10.22871 34339 ft 411 kts 231°
2026-04-26 10:03 54.55670 10.15797 34355 ft 412 kts 231°
2026-04-26 10:03 54.51656 10.08709 34352 ft 413 kts 231°
2026-04-26 10:04 54.47629 10.01619 34334 ft 414 kts 231°
2026-04-26 10:04 54.43618 9.94581 34347 ft 415 kts 230°
2026-04-26 10:05 54.39564 9.87487 34343 ft 415 kts 230°
2026-04-26 10:05 54.35508 9.80412 34319 ft 415 kts 230°
2026-04-26 10:06 54.31453 9.73361 34320 ft 415 kts 230°
2026-04-26 10:06 54.27410 9.66350 34316 ft 415 kts 230°
2026-04-26 10:07 54.23345 9.59322 34320 ft 414 kts 230°
2026-04-26 10:07 54.19291 9.52333 34316 ft 413 kts 230°
2026-04-26 10:08 54.15271 9.45424 34321 ft 413 kts 229°
2026-04-26 10:08 54.11220 9.38481 34321 ft 412 kts 229°
2026-04-26 10:09 54.07163 9.31549 34329 ft 412 kts 229°
2026-04-26 10:09 54.03101 9.24628 34322 ft 413 kts 229°
2026-04-26 10:10 53.99064 9.17770 34324 ft 413 kts 229°
2026-04-26 10:10 53.94987 9.10864 34329 ft 413 kts 229°
2026-04-26 10:11 53.90904 9.03969 34336 ft 414 kts 229°
2026-04-26 10:11 53.86808 8.97071 34336 ft 415 kts 229°
2026-04-26 10:12 53.82707 8.90186 34340 ft 415 kts 229°
2026-04-26 10:12 53.78625 8.83351 34345 ft 416 kts 229°
2026-04-26 10:13 53.74507 8.76478 34346 ft 416 kts 229°
2026-04-26 10:13 53.70375 8.69600 34346 ft 417 kts 229°
2026-04-26 10:14 53.66231 8.62724 34346 ft 417 kts 228°
2026-04-26 10:14 53.62083 8.55860 34341 ft 418 kts 228°
2026-04-26 10:15 53.57932 8.49012 34339 ft 418 kts 228°
2026-04-26 10:15 53.53802 8.42216 34337 ft 418 kts 228°
2026-04-26 10:16 53.49633 8.35379 34334 ft 418 kts 228°
2026-04-26 10:16 53.45460 8.28554 34337 ft 419 kts 228°
2026-04-26 10:17 53.41273 8.21724 34334 ft 419 kts 228°
2026-04-26 10:17 53.37091 8.14924 34340 ft 419 kts 228°
2026-04-26 10:18 53.32905 8.08137 34337 ft 419 kts 228°
2026-04-26 10:18 53.28732 8.01390 34339 ft 419 kts 227°
2026-04-26 10:19 53.24525 7.94606 34337 ft 420 kts 227°
2026-04-26 10:19 53.20311 7.87832 34340 ft 420 kts 227°
2026-04-26 10:20 53.16804 7.82210 34338 ft 420 kts 227°
2026-04-26 10:20 53.11866 7.74315 34336 ft 421 kts 227°
2026-04-26 10:21 53.07668 7.67624 34338 ft 421 kts 227°
2026-04-26 10:21 53.03432 7.60893 34334 ft 422 kts 227°
2026-04-26 10:22 52.99169 7.54136 34338 ft 422 kts 227°
2026-04-26 10:22 52.94910 7.47408 34338 ft 423 kts 227°
2026-04-26 10:23 52.90665 7.40718 34336 ft 423 kts 227°
2026-04-26 10:23 52.86389 7.34001 34347 ft 424 kts 227°
2026-04-26 10:24 52.82099 7.27280 34347 ft 424 kts 227°
2026-04-26 10:24 52.77798 7.20560 34343 ft 425 kts 226°
2026-04-26 10:25 52.73502 7.13868 34349 ft 425 kts 226°
2026-04-26 10:25 52.69220 7.07217 34347 ft 425 kts 226°
2026-04-26 10:26 52.64877 7.00491 34341 ft 425 kts 226°
2026-04-26 10:26 52.60585 6.93862 34340 ft 426 kts 226°
2026-04-26 10:27 52.56258 6.87197 34342 ft 426 kts 226°
2026-04-26 10:27 52.51941 6.80567 34343 ft 426 kts 226°
2026-04-26 10:28 52.47599 6.73919 34343 ft 426 kts 226°
2026-04-26 10:28 52.43994 6.68412 34339 ft 426 kts 226°
2026-04-26 10:29 52.39641 6.61780 34342 ft 426 kts 226°
2026-04-26 10:29 52.34589 6.54106 34342 ft 427 kts 226°
2026-04-26 10:30 52.30940 6.48579 34341 ft 427 kts 226°
2026-04-26 10:30 52.26589 6.42006 34341 ft 427 kts 226°
2026-04-26 10:31 52.22230 6.35440 34341 ft 427 kts 226°
2026-04-26 10:31 52.17851 6.28861 34343 ft 428 kts 226°
2026-04-26 10:32 52.13474 6.22303 34344 ft 428 kts 226°
2026-04-26 10:32 52.09079 6.15738 34346 ft 428 kts 225°
2026-04-26 10:33 52.04676 6.09178 34349 ft 429 kts 225°
2026-04-26 10:33 52.00308 6.02690 34347 ft 429 kts 225°
2026-04-26 10:34 51.95899 5.96158 34348 ft 429 kts 225°
2026-04-26 10:34 51.91470 5.89615 34344 ft 430 kts 225°
2026-04-26 10:35 51.87056 5.83112 34342 ft 430 kts 225°
2026-04-26 10:35 51.82624 5.76601 34347 ft 430 kts 225°
2026-04-26 10:36 51.78179 5.70088 34346 ft 430 kts 225°
2026-04-26 10:36 51.73768 5.63643 34349 ft 431 kts 225°
2026-04-26 10:37 51.69314 5.57154 34342 ft 431 kts 225°
2026-04-26 10:37 51.64859 5.50682 34345 ft 431 kts 225°
2026-04-26 10:38 51.60403 5.44225 34318 ft 431 kts 225°
2026-04-26 10:38 51.55955 5.37799 34320 ft 430 kts 225°
2026-04-26 10:39 51.51491 5.31366 34316 ft 430 kts 225°
2026-04-26 10:39 51.47034 5.24960 34323 ft 431 kts 225°
2026-04-26 10:40 51.42584 5.18583 34321 ft 431 kts 225°
2026-04-26 10:40 51.38086 5.12154 34325 ft 431 kts 225°
2026-04-26 10:41 51.33630 5.05804 34320 ft 431 kts 225°
2026-04-26 10:41 51.29155 4.99442 34332 ft 431 kts 225°
2026-04-26 10:42 51.24654 4.93061 34329 ft 432 kts 224°
2026-04-26 10:42 51.21639 4.88797 34334 ft 432 kts 225°
2026-04-26 10:43 51.21574 4.88704 34335 ft 432 kts 225°
2026-04-26 10:43 51.17650 4.83166 34337 ft 432 kts 224°
2026-04-26 10:44 51.13797 4.77741 34332 ft 433 kts 224°
2026-04-26 10:44 51.09279 4.71395 34340 ft 433 kts 224°
2026-04-26 10:45 51.04748 4.65048 34323 ft 433 kts 224°
2026-04-26 10:45 51.00218 4.58720 34319 ft 433 kts 224°
2026-04-26 10:46 50.95694 4.52417 34308 ft 433 kts 224°
2026-04-26 10:46 50.91191 4.46159 34309 ft 433 kts 224°
2026-04-26 10:47 50.86672 4.39897 34327 ft 433 kts 224°
2026-04-26 10:47 50.82126 4.33613 34330 ft 433 kts 224°
2026-04-26 10:48 50.77578 4.27342 34308 ft 433 kts 224°
2026-04-26 10:48 50.73068 4.21140 34315 ft 432 kts 224°
2026-04-26 10:49 50.68530 4.14911 34310 ft 432 kts 224°
2026-04-26 10:49 50.63987 4.08696 34311 ft 432 kts 224°
2026-04-26 10:50 50.60088 4.04052 34306 ft 436 kts 213°
2026-04-26 10:50 50.54207 3.99017 34308 ft 437 kts 211°
2026-04-26 10:51 50.46204 3.92300 34301 ft 436 kts 212°
2026-04-26 10:52 50.40879 3.87769 34301 ft 435 kts 212°
2026-04-26 10:52 50.35545 3.83218 34291 ft 435 kts 212°
2026-04-26 10:53 50.30231 3.78691 34294 ft 435 kts 212°
2026-04-26 10:53 50.24960 3.74214 34287 ft 435 kts 212°
2026-04-26 10:54 50.16965 3.67448 34285 ft 434 kts 212°
2026-04-26 10:54 50.11681 3.62989 34287 ft 433 kts 212°
2026-04-26 10:55 50.06374 3.58523 34285 ft 433 kts 212°
2026-04-26 10:55 50.01072 3.54073 34280 ft 433 kts 211°
2026-04-26 10:56 49.95764 3.49628 34279 ft 433 kts 211°
2026-04-26 10:56 49.90453 3.45192 34277 ft 433 kts 211°
2026-04-26 10:57 49.85143 3.40768 34274 ft 432 kts 211°
2026-04-26 10:57 49.79879 3.36393 34269 ft 432 kts 211°
2026-04-26 10:58 49.74577 3.31996 34267 ft 432 kts 211°
2026-04-26 10:58 49.69288 3.27621 34274 ft 431 kts 211°
2026-04-26 10:59 49.64003 3.23260 34271 ft 430 kts 211°
2026-04-26 10:59 49.58718 3.18906 34268 ft 430 kts 211°
2026-04-26 11:00 49.53481 3.14606 34278 ft 429 kts 211°
2026-04-26 11:00 49.48696 3.09298 34281 ft 421 kts 228°
2026-04-26 11:01 49.45303 3.02063 34282 ft 416 kts 242°
2026-04-26 11:01 49.42492 2.94318 34246 ft 416 kts 242°
2026-04-26 11:02 49.39637 2.86546 34257 ft 417 kts 242°
2026-04-26 11:02 49.36749 2.78806 34258 ft 419 kts 241°
2026-04-26 11:03 49.33861 2.71084 34264 ft 421 kts 242°
2026-04-26 11:03 49.31073 2.63189 34264 ft 422 kts 243°
2026-04-26 11:04 49.28492 2.55791 34262 ft 422 kts 243°
2026-04-26 11:04 49.25706 2.47875 34264 ft 422 kts 243°
2026-04-26 11:05 49.22910 2.39979 34261 ft 422 kts 242°
2026-04-26 11:05 49.20105 2.32094 34263 ft 420 kts 242°
2026-04-26 11:06 49.17753 2.25628 34263 ft 419 kts 241°
2026-04-26 11:06 49.14398 2.16577 34266 ft 418 kts 241°
2026-04-26 11:07 49.11539 2.08848 34261 ft 417 kts 241°
2026-04-26 11:07 49.08771 2.01119 34264 ft 415 kts 245°
2026-04-26 11:08 49.06371 1.93170 34272 ft 414 kts 246°
2026-04-26 11:08 49.04026 1.85192 34268 ft 413 kts 246°
2026-04-26 11:09 49.01648 1.77220 34268 ft 414 kts 246°
2026-04-26 11:09 48.99238 1.69238 34259 ft 414 kts 245°
2026-04-26 11:10 48.96875 1.61453 34266 ft 415 kts 245°
2026-04-26 11:10 48.94449 1.53491 34264 ft 416 kts 245°
2026-04-26 11:11 48.92005 1.45493 34267 ft 416 kts 245°
2026-04-26 11:11 48.89572 1.37556 34264 ft 417 kts 245°
2026-04-26 11:12 48.87113 1.29558 34259 ft 418 kts 245°
2026-04-26 11:12 48.84655 1.21589 34267 ft 418 kts 245°
2026-04-26 11:13 48.82169 1.13554 34257 ft 419 kts 245°
2026-04-26 11:13 48.79686 1.05550 34257 ft 420 kts 245°
2026-04-26 11:14 48.77190 0.97524 34258 ft 420 kts 245°
2026-04-26 11:14 48.75113 0.90878 34263 ft 420 kts 245°
2026-04-26 11:15 48.72306 0.83177 34251 ft 420 kts 239°
2026-04-26 11:15 48.69215 0.75680 34251 ft 420 kts 238°
2026-04-26 11:16 48.66113 0.68164 34244 ft 419 kts 238°
2026-04-26 11:16 48.63054 0.60683 34246 ft 418 kts 239°
2026-04-26 11:17 48.59999 0.53192 34247 ft 418 kts 239°
2026-04-26 11:17 48.56962 0.45755 34234 ft 418 kts 239°
2026-04-26 11:18 48.53907 0.38300 34234 ft 417 kts 238°
2026-04-26 11:18 48.50855 0.30872 34237 ft 416 kts 238°
2026-04-26 11:19 48.47795 0.23444 34235 ft 416 kts 238°
2026-04-26 11:19 48.44743 0.16056 34230 ft 415 kts 238°
2026-04-26 11:20 48.41692 0.08687 34228 ft 414 kts 238°
2026-04-26 11:20 48.38638 0.01327 34231 ft 414 kts 238°
2026-04-26 11:21 48.35564 -0.05905 34227 ft 414 kts 238°
2026-04-26 11:21 48.32103 -0.12862 34238 ft 415 kts 235°
2026-04-26 11:22 48.28609 -0.19753 34228 ft 415 kts 236°
2026-04-26 11:22 48.25147 -0.26678 34230 ft 415 kts 236°
2026-04-26 11:23 48.21644 -0.33556 34230 ft 415 kts 235°
2026-04-26 11:23 48.18142 -0.40383 34224 ft 414 kts 235°
2026-04-26 11:24 48.14639 -0.47210 34231 ft 413 kts 235°
2026-04-26 11:24 48.11141 -0.54022 34235 ft 412 kts 235°
2026-04-26 11:25 48.07645 -0.60817 34236 ft 411 kts 235°
2026-04-26 11:25 48.04158 -0.67577 34238 ft 410 kts 235°
2026-04-26 11:26 48.00662 -0.74339 34242 ft 410 kts 234°
2026-04-26 11:26 47.97181 -0.81054 34234 ft 409 kts 234°
2026-04-26 11:27 47.93693 -0.87766 34232 ft 409 kts 234°
2026-04-26 11:27 47.90233 -0.94409 34230 ft 409 kts 234°
2026-04-26 11:28 47.86736 -1.01106 34223 ft 409 kts 234°
2026-04-26 11:28 47.83233 -1.07798 34215 ft 410 kts 234°
2026-04-26 11:29 47.79725 -1.14483 34210 ft 411 kts 234°
2026-04-26 11:29 47.76189 -1.21206 34214 ft 412 kts 234°
2026-04-26 11:30 47.73255 -1.26773 34217 ft 414 kts 234°
2026-04-26 11:30 47.69085 -1.34666 34209 ft 415 kts 233°
2026-04-26 11:31 47.65527 -1.41385 34214 ft 417 kts 233°
2026-04-26 11:31 47.61931 -1.48160 34212 ft 418 kts 233°
2026-04-26 11:32 47.58242 -1.54848 34206 ft 419 kts 230°
2026-04-26 11:32 47.54320 -1.61247 34208 ft 420 kts 229°
2026-04-26 11:33 47.50373 -1.67630 34206 ft 420 kts 229°
2026-04-26 11:33 47.46459 -1.74022 34201 ft 419 kts 230°
2026-04-26 11:34 47.42564 -1.80395 34205 ft 417 kts 230°
2026-04-26 11:34 47.38704 -1.86699 34201 ft 416 kts 230°
2026-04-26 11:35 47.34698 -1.92850 34208 ft 417 kts 222°
2026-04-26 11:35 47.30688 -1.96828 34211 ft 418 kts 213°
2026-04-26 11:36 47.24859 -2.01923 34219 ft 417 kts 213°
2026-04-26 11:36 47.19889 -2.06303 34208 ft 417 kts 213°
2026-04-26 11:37 47.14914 -2.10723 34206 ft 416 kts 213°
2026-04-26 11:37 47.09983 -2.15107 34210 ft 416 kts 213°
2026-04-26 11:38 47.05027 -2.19503 34203 ft 416 kts 213°
2026-04-26 11:38 47.00075 -2.23886 34209 ft 416 kts 213°
2026-04-26 11:39 46.95100 -2.28283 34214 ft 417 kts 213°
2026-04-26 11:39 46.90128 -2.32662 34213 ft 417 kts 213°
2026-04-26 11:40 46.85707 -2.38009 34216 ft 413 kts 230°
2026-04-26 11:40 46.82511 -2.44874 34225 ft 411 kts 241°
2026-04-26 11:42 46.71127 -2.73915 34218 ft 413 kts 240°
2026-04-26 11:43 46.68243 -2.81160 34222 ft 413 kts 240°
2026-04-26 11:43 46.65357 -2.88391 34222 ft 412 kts 240°
2026-04-26 11:44 46.62471 -2.95609 34222 ft 412 kts 240°
2026-04-26 11:44 46.59597 -3.02783 34225 ft 411 kts 240°
2026-04-26 11:45 46.56601 -3.09859 34216 ft 411 kts 233°
2026-04-26 11:45 46.52725 -3.15957 34219 ft 411 kts 226°
2026-04-26 11:46 46.48739 -3.21853 34223 ft 411 kts 226°
2026-04-26 11:46 46.44747 -3.27788 34223 ft 410 kts 226°
2026-04-26 11:47 46.40772 -3.33728 34223 ft 410 kts 226°
2026-04-26 11:47 46.36798 -3.39673 34223 ft 410 kts 226°
2026-04-26 11:48 46.32847 -3.45574 34223 ft 410 kts 226°
2026-04-26 11:48 46.28876 -3.51491 34225 ft 410 kts 226°
2026-04-26 11:49 46.24950 -3.57327 34223 ft 410 kts 226°
2026-04-26 11:49 46.20955 -3.63253 34220 ft 411 kts 226°
2026-04-26 11:50 46.16959 -3.69168 34226 ft 411 kts 226°
2026-04-26 11:50 46.12962 -3.75070 34220 ft 411 kts 226°
2026-04-26 11:51 46.08962 -3.80965 34222 ft 411 kts 226°
2026-04-26 11:51 46.04952 -3.86861 34220 ft 412 kts 226°
2026-04-26 11:52 46.01623 -3.91745 34220 ft 412 kts 226°
2026-04-26 11:52 45.96929 -3.98619 34213 ft 411 kts 226°
2026-04-26 11:53 45.92941 -4.04443 34222 ft 411 kts 226°
2026-04-26 11:54 45.86923 -4.13208 34219 ft 410 kts 226°
2026-04-26 11:54 45.82915 -4.19031 34222 ft 410 kts 226°
2026-04-26 11:55 45.78903 -4.24847 34219 ft 410 kts 225°
2026-04-26 11:55 45.74880 -4.30666 34219 ft 410 kts 225°
2026-04-26 11:56 45.70863 -4.36463 34224 ft 410 kts 225°
2026-04-26 11:56 45.66848 -4.42244 34221 ft 410 kts 225°
2026-04-26 11:57 45.62864 -4.47969 34219 ft 410 kts 225°
2026-04-26 11:57 45.58836 -4.53746 34236 ft 410 kts 225°
2026-04-26 11:58 45.54804 -4.59515 34221 ft 410 kts 225°
2026-04-26 11:58 45.50764 -4.65283 34218 ft 410 kts 225°
2026-04-26 11:59 45.46751 -4.71001 34220 ft 410 kts 225°
2026-04-26 11:59 45.42685 -4.76781 34225 ft 410 kts 225°
2026-04-26 12:00 45.38666 -4.82482 34234 ft 410 kts 225°
2026-04-26 12:00 45.34621 -4.88209 34218 ft 411 kts 225°
2026-04-26 12:01 45.30566 -4.93937 34212 ft 411 kts 225°
2026-04-26 12:01 45.26500 -4.99668 34231 ft 411 kts 225°
2026-04-26 12:02 45.23122 -5.04421 34223 ft 411 kts 225°
2026-04-26 12:02 45.18385 -5.11070 34233 ft 411 kts 225°
2026-04-26 12:03 45.14976 -5.15846 34231 ft 412 kts 225°
2026-04-26 12:03 45.10917 -5.21521 34224 ft 412 kts 225°
2026-04-26 12:04 45.06832 -5.27221 34222 ft 413 kts 225°
2026-04-26 12:04 45.02744 -5.32912 34220 ft 413 kts 225°
2026-04-26 12:05 44.98632 -5.38625 34223 ft 413 kts 225°
2026-04-26 12:05 44.94528 -5.44316 34230 ft 414 kts 225°
2026-04-26 12:06 44.90421 -5.49998 34228 ft 414 kts 224°
2026-04-26 12:06 44.86318 -5.55663 34230 ft 415 kts 224°
2026-04-26 12:07 44.82193 -5.61347 34219 ft 415 kts 224°
2026-04-26 12:07 44.78046 -5.67050 34223 ft 415 kts 224°
2026-04-26 12:08 44.73917 -5.72719 34220 ft 416 kts 224°
2026-04-26 12:08 44.69768 -5.78405 34221 ft 416 kts 224°
2026-04-26 12:09 44.65590 -5.84014 34224 ft 416 kts 220°
2026-04-26 12:09 44.60890 -5.88785 34221 ft 417 kts 215°
2026-04-26 12:10 44.56160 -5.93392 34229 ft 417 kts 215°
2026-04-26 12:10 44.51405 -5.98048 34221 ft 417 kts 216°
2026-04-26 12:11 44.46644 -6.02734 34225 ft 417 kts 216°
2026-04-26 12:11 44.41897 -6.07408 34217 ft 417 kts 216°
2026-04-26 12:12 44.37173 -6.12053 34222 ft 417 kts 216°
2026-04-26 12:12 44.32424 -6.16714 34217 ft 417 kts 216°
2026-04-26 12:13 44.27691 -6.21349 34214 ft 418 kts 216°
2026-04-26 12:13 44.22910 -6.26021 34213 ft 418 kts 216°
2026-04-26 12:14 44.18183 -6.30631 34214 ft 418 kts 216°
2026-04-26 12:14 44.13413 -6.35274 34215 ft 418 kts 215°
2026-04-26 12:15 44.08638 -6.39912 34217 ft 418 kts 215°
2026-04-26 12:15 44.03848 -6.44556 34212 ft 419 kts 215°
2026-04-26 12:16 43.99074 -6.49175 34211 ft 419 kts 215°
2026-04-26 12:16 43.94284 -6.53799 34214 ft 419 kts 215°
2026-04-26 12:17 43.89500 -6.58410 34211 ft 419 kts 215°
2026-04-26 12:17 43.84698 -6.63028 34212 ft 419 kts 215°
2026-04-26 12:18 43.79899 -6.67634 34214 ft 420 kts 215°
2026-04-26 12:18 43.75122 -6.72210 34214 ft 420 kts 215°
2026-04-26 12:19 43.70316 -6.76804 34213 ft 420 kts 215°
2026-04-26 12:19 43.65505 -6.81395 34209 ft 420 kts 215°
2026-04-26 12:20 43.60686 -6.85983 34202 ft 420 kts 215°
2026-04-26 12:20 43.55860 -6.90570 34204 ft 421 kts 215°
2026-04-26 12:21 43.51062 -6.95120 34198 ft 421 kts 215°
2026-04-26 12:21 43.46224 -6.99700 34196 ft 422 kts 215°
2026-04-26 12:22 43.41389 -7.04268 34186 ft 422 kts 215°
2026-04-26 12:22 43.36538 -7.08842 34189 ft 423 kts 215°
2026-04-26 12:23 43.31681 -7.13412 34178 ft 423 kts 215°
2026-04-26 12:23 43.26821 -7.17976 34177 ft 423 kts 215°
2026-04-26 12:24 43.21954 -7.22539 34168 ft 423 kts 215°
2026-04-26 12:24 43.17129 -7.27052 34163 ft 423 kts 214°
2026-04-26 12:25 43.09832 -7.33862 34154 ft 423 kts 214°
2026-04-26 12:25 43.04965 -7.38393 34151 ft 423 kts 214°
2026-04-26 12:26 43.00106 -7.42908 34145 ft 423 kts 214°
2026-04-26 12:26 42.95235 -7.47425 34140 ft 423 kts 214°
2026-04-26 12:27 42.90392 -7.51907 34121 ft 409 kts 214°
2026-04-26 12:27 42.85762 -7.56185 34121 ft 398 kts 214°
2026-04-26 12:28 42.81207 -7.60387 34133 ft 396 kts 214°
2026-04-26 12:28 42.76764 -7.64476 34050 ft 376 kts 214°
2026-04-26 12:29 42.74605 -7.66463 33568 ft 373 kts 214°
2026-04-26 12:29 42.72446 -7.68447 32589 ft 380 kts 214°
2026-04-26 12:29 42.68105 -7.72436 31618 ft 370 kts 214°
2026-04-26 12:30 42.65979 -7.74384 31302 ft 367 kts 214°
2026-04-26 12:30 42.63865 -7.76317 30940 ft 365 kts 214°
2026-04-26 12:30 42.61686 -7.78098 30593 ft 364 kts 206°
2026-04-26 12:31 42.56942 -7.80251 29969 ft 359 kts 196°
2026-04-26 12:31 42.54530 -7.81127 29608 ft 357 kts 196°
2026-04-26 12:31 42.52141 -7.81989 29250 ft 355 kts 196°
2026-04-26 12:31 42.49764 -7.82854 28891 ft 353 kts 196°
2026-04-26 12:32 42.47401 -7.83721 28533 ft 351 kts 196°
2026-04-26 12:32 42.45050 -7.84590 28185 ft 349 kts 197°
2026-04-26 12:32 42.40375 -7.86327 27487 ft 346 kts 197°
2026-04-26 12:33 42.38072 -7.87185 27143 ft 345 kts 197°
2026-04-26 12:33 42.35772 -7.88041 26805 ft 343 kts 197°
2026-04-26 12:33 42.33451 -7.88905 26454 ft 343 kts 197°
2026-04-26 12:33 42.31156 -7.89759 26125 ft 342 kts 197°
2026-04-26 12:34 42.28895 -7.90600 25790 ft 341 kts 197°
2026-04-26 12:34 42.26583 -7.91460 25442 ft 341 kts 197°
2026-04-26 12:34 42.24301 -7.92308 25112 ft 341 kts 197°
2026-04-26 12:34 42.22004 -7.93161 24775 ft 341 kts 197°
2026-04-26 12:35 42.19720 -7.94008 24416 ft 341 kts 197°
2026-04-26 12:35 42.17460 -7.94847 24082 ft 342 kts 197°
2026-04-26 12:35 42.15153 -7.95701 23736 ft 343 kts 197°
2026-04-26 12:35 42.12861 -7.96548 23328 ft 343 kts 196°
2026-04-26 12:36 42.10562 -7.97397 22962 ft 342 kts 196°
2026-04-26 12:36 42.08260 -7.98247 22610 ft 341 kts 196°
2026-04-26 12:36 42.05968 -7.99093 22262 ft 340 kts 196°
2026-04-26 12:36 42.03696 -7.99932 21915 ft 339 kts 196°
2026-04-26 12:37 42.01417 -8.00772 21574 ft 338 kts 196°
2026-04-26 12:37 41.99156 -8.01605 21226 ft 337 kts 196°
2026-04-26 12:37 41.96921 -8.02429 20907 ft 337 kts 196°
2026-04-26 12:37 41.94663 -8.03260 20563 ft 336 kts 196°
2026-04-26 12:38 41.92417 -8.04086 20229 ft 336 kts 196°
2026-04-26 12:38 41.90153 -8.04920 19896 ft 336 kts 195°
2026-04-26 12:38 41.87894 -8.05750 19555 ft 336 kts 195°
2026-04-26 12:38 41.85646 -8.06575 19221 ft 336 kts 195°
2026-04-26 12:39 41.83389 -8.07400 18868 ft 336 kts 195°
2026-04-26 12:39 41.81150 -8.08296 18509 ft 337 kts 202°
2026-04-26 12:39 41.79047 -8.09758 17978 ft 341 kts 210°
2026-04-26 12:39 41.77033 -8.11366 17605 ft 341 kts 210°
2026-04-26 12:40 41.74958 -8.12990 17234 ft 340 kts 210°
2026-04-26 12:40 41.72910 -8.14551 16882 ft 339 kts 209°
2026-04-26 12:40 41.70849 -8.16099 16537 ft 338 kts 208°
2026-04-26 12:40 41.68722 -8.17418 16188 ft 337 kts 200°
2026-04-26 12:41 41.66531 -8.18438 15854 ft 336 kts 197°
2026-04-26 12:41 41.64314 -8.19383 15523 ft 335 kts 197°
2026-04-26 12:41 41.62094 -8.20330 15185 ft 335 kts 197°
2026-04-26 12:41 41.59873 -8.21299 14843 ft 334 kts 198°
2026-04-26 12:42 41.57668 -8.22280 14501 ft 334 kts 198°
2026-04-26 12:42 41.55468 -8.23272 14177 ft 333 kts 198°
2026-04-26 12:42 41.53271 -8.24270 13819 ft 333 kts 198°
2026-04-26 12:42 41.51085 -8.25267 13443 ft 333 kts 198°
2026-04-26 12:43 41.48893 -8.26268 13090 ft 332 kts 198°
2026-04-26 12:43 41.46701 -8.27268 12746 ft 331 kts 198°
2026-04-26 12:43 41.44524 -8.28258 12264 ft 329 kts 198°
2026-04-26 12:43 41.42390 -8.29228 11930 ft 321 kts 198°
2026-04-26 12:44 41.40298 -8.30178 11570 ft 314 kts 198°
2026-04-26 12:44 41.38242 -8.31109 11233 ft 308 kts 197°
2026-04-26 12:44 41.36236 -8.32017 10927 ft 302 kts 198°
2026-04-26 12:44 41.35587 -8.32312 10809 ft 300 kts 197°
2026-04-26 12:45 41.35201 -8.32487 10758 ft 299 kts 197°
2026-04-26 12:46 41.33747 -8.33145 10540 ft 297 kts 197°
2026-04-26 12:46 41.31788 -8.34032 10271 ft 297 kts 198°
2026-04-26 12:46 41.29849 -8.34910 10113 ft 294 kts 198°
2026-04-26 12:46 41.27926 -8.35781 10030 ft 287 kts 197°
2026-04-26 12:47 41.26000 -8.36648 9512 ft 296 kts 197°
2026-04-26 12:47 41.24048 -8.37530 9188 ft 298 kts 197°
2026-04-26 12:47 41.22080 -8.38421 8871 ft 300 kts 197°
2026-04-26 12:47 41.20117 -8.39309 8532 ft 295 kts 197°
2026-04-26 12:48 41.18192 -8.40179 8230 ft 288 kts 197°
2026-04-26 12:48 41.16321 -8.41024 7929 ft 282 kts 197°
2026-04-26 12:48 41.14477 -8.41856 7650 ft 278 kts 197°
2026-04-26 12:48 41.12640 -8.42683 7370 ft 279 kts 197°
2026-04-26 12:49 41.10797 -8.43514 7097 ft 280 kts 197°
2026-04-26 12:49 41.08964 -8.44341 6814 ft 282 kts 197°
2026-04-26 12:49 41.07099 -8.45178 6562 ft 285 kts 196°
2026-04-26 12:49 41.05192 -8.46035 6149 ft 292 kts 197°
2026-04-26 12:50 41.03269 -8.46870 5906 ft 292 kts 197°
2026-04-26 12:50 41.01449 -8.48102 5684 ft 296 kts 219°
2026-04-26 12:50 41.00158 -8.50279 5096 ft 309 kts 247°
2026-04-26 12:50 40.99681 -8.52005 5184 ft 300 kts 251°
2026-04-26 12:51 40.99202 -8.54682 5052 ft 295 kts 258°
2026-04-26 12:51 40.99121 -8.57349 4882 ft 287 kts 281°
2026-04-26 12:51 40.99909 -8.59702 4629 ft 277 kts 307°
2026-04-26 12:51 41.01270 -8.61436 4341 ft 269 kts 326°
2026-04-26 12:52 41.02942 -8.62471 4088 ft 259 kts 340°
2026-04-26 12:52 41.04614 -8.63147 3955 ft 247 kts 348°
2026-04-26 12:52 41.06295 -8.63524 3647 ft 243 kts 351°
2026-04-26 12:52 41.07936 -8.63902 3359 ft 236 kts 349°
2026-04-26 12:53 41.09526 -8.64301 3018 ft 229 kts 349°
2026-04-26 12:53 41.11065 -8.64687 2712 ft 222 kts 349°
2026-04-26 12:53 41.12546 -8.65056 2384 ft 211 kts 349°
2026-04-26 12:53 41.13926 -8.65399 2249 ft 192 kts 348°
2026-04-26 12:54 41.15178 -8.65711 1940 ft 184 kts 348°
2026-04-26 12:54 41.16392 -8.66011 1664 ft 171 kts 348°
2026-04-26 12:54 41.17455 -8.66277 1419 ft 157 kts 347°
2026-04-26 12:54 41.18528 -8.66545 1188 ft 148 kts 347°
2026-04-26 12:55 41.19531 -8.66796 1031 ft 147 kts 347°
2026-04-26 12:55 41.20552 -8.67050 857 ft 151 kts 347°
2026-04-26 12:55 41.21592 -8.67307 650 ft 151 kts 346°
2026-04-26 12:55 41.22629 -8.67580 413 ft 150 kts 348°
2026-04-26 12:56 41.23653 -8.67831 242 ft 148 kts 345°
2026-04-26 12:56 41.24660 -8.68114 235 ft 149 kts 351°
2026-04-26 12:56 41.25680 -8.68249 755 ft 148 kts 357°
2026-04-26 12:56 41.26721 -8.68267 1364 ft 158 kts
2026-04-26 12:57 41.27953 -8.68130 1770 ft 193 kts
2026-04-26 12:57 41.29298 -8.67705 2710 ft 202 kts 27°
2026-04-26 12:57 41.30495 -8.66704 3767 ft 205 kts 34°
2026-04-26 12:58 41.32126 -8.63739 4983 ft 217 kts 86°
2026-04-26 12:58 41.31853 -8.61805 5024 ft 214 kts 117°
2026-04-26 12:58 41.31243 -8.59990 5069 ft 219 kts 101°
2026-04-26 12:58 41.31191 -8.57891 5357 ft 238 kts 89°
2026-04-26 12:59 41.31223 -8.55642 5943 ft 243 kts 89°
2026-04-26 12:59 41.31256 -8.53355 6091 ft 252 kts 89°
2026-04-26 12:59 41.31293 -8.51007 6125 ft 255 kts 89°
2026-04-26 12:59 41.31329 -8.48656 6117 ft 252 kts 89°
2026-04-26 13:00 41.31361 -8.46329 6111 ft 250 kts 90°
2026-04-26 13:00 41.31222 -8.44046 6088 ft 246 kts 111°
2026-04-26 13:00 41.30221 -8.42272 6114 ft 244 kts 146°
2026-04-26 13:00 41.28627 -8.41479 6175 ft 249 kts 166°
2026-04-26 13:01 41.26906 -8.41012 6052 ft 254 kts 168°
2026-04-26 13:01 41.25178 -8.40582 5932 ft 251 kts 169°
2026-04-26 13:01 41.23491 -8.40178 5750 ft 248 kts 169°
2026-04-26 13:01 41.21795 -8.39770 5487 ft 248 kts 169°
2026-04-26 13:02 41.20103 -8.39361 5254 ft 246 kts 169°
2026-04-26 13:02 41.18423 -8.38948 5026 ft 245 kts 169°
2026-04-26 13:02 41.16748 -8.38529 4798 ft 244 kts 169°
2026-04-26 13:02 41.15074 -8.38181 4514 ft 244 kts 181°
2026-04-26 13:03 41.13444 -8.38712 4282 ft 241 kts 199°
2026-04-26 13:03 41.11854 -8.39458 4162 ft 242 kts 199°
2026-04-26 13:03 41.10263 -8.40206 4062 ft 244 kts 199°
2026-04-26 13:03 41.08667 -8.40963 4018 ft 241 kts 201°
2026-04-26 13:04 41.07265 -8.42130 4023 ft 237 kts 219°
2026-04-26 13:04 41.05997 -8.43539 4019 ft 237 kts 219°
2026-04-26 13:04 41.04727 -8.44951 4015 ft 239 kts 219°
2026-04-26 13:04 41.03447 -8.46370 4022 ft 242 kts 219°
2026-04-26 13:05 41.02148 -8.47801 4058 ft 243 kts 219°
2026-04-26 13:05 41.00850 -8.49282 4049 ft 248 kts 219°
2026-04-26 13:05 40.99529 -8.50741 4052 ft 247 kts 219°
2026-04-26 13:05 40.98210 -8.52195 4025 ft 246 kts 219°
2026-04-26 13:06 40.96904 -8.53640 4017 ft 244 kts 219°
2026-04-26 13:06 40.95673 -8.55165 4000 ft 243 kts 236°
2026-04-26 13:06 40.95212 -8.57238 4019 ft 240 kts 273°
2026-04-26 13:06 40.95799 -8.59207 4018 ft 227 kts 313°
2026-04-26 13:07 40.97077 -8.60273 4031 ft 211 kts 337°
2026-04-26 13:07 40.98389 -8.60981 4011 ft 196 kts 340°
2026-04-26 13:07 40.99654 -8.61570 4016 ft 190 kts 340°
2026-04-26 13:07 41.00917 -8.62117 4035 ft 193 kts 346°
2026-04-26 13:08 41.02235 -8.62494 4037 ft 194 kts 349°
2026-04-26 13:08 41.03567 -8.62820 3913 ft 193 kts 350°
2026-04-26 13:08 41.04870 -8.63141 3693 ft 188 kts 349°
2026-04-26 13:08 41.06141 -8.63457 3496 ft 184 kts 349°
2026-04-26 13:09 41.07350 -8.63759 3313 ft 174 kts 349°
2026-04-26 13:09 41.08536 -8.64054 3149 ft 173 kts 349°
2026-04-26 13:09 41.09713 -8.64347 2970 ft 177 kts 349°
2026-04-26 13:09 41.10936 -8.64652 2735 ft 176 kts 349°
2026-04-26 13:10 41.12114 -8.64946 2491 ft 173 kts 349°
2026-04-26 13:10 41.13298 -8.65240 2270 ft 169 kts 349°
2026-04-26 13:10 41.14430 -8.65522 2043 ft 167 kts 348°
2026-04-26 13:10 41.15572 -8.65807 1828 ft 167 kts 349°
2026-04-26 13:11 41.16711 -8.66065 1630 ft 165 kts 347°
2026-04-26 13:11 41.17743 -8.66345 1401 ft 164 kts 348°
2026-04-26 13:11 41.18859 -8.66625 1192 ft 159 kts 348°
2026-04-26 13:11 41.19953 -8.66898 990 ft 161 kts 348°
2026-04-26 13:12 41.21054 -8.67164 747 ft 160 kts 347°
2026-04-26 13:12 41.22148 -8.67438 503 ft 159 kts 346°
2026-04-26 13:12 41.23207 -8.67717 299 ft 152 kts 347°
2026-04-26 13:12 41.24225 -8.67975 214 ft 147 kts 347°
2026-04-26 13:13 41.25109 -8.68200 180 ft 108 kts 349°
2026-04-26 13:13 41.25615 -8.68320 166 ft 35 kts
2026-04-26 13:13 41.25672 -8.68185 165 ft 17 kts 92°
2026-04-26 13:13 41.25613 -8.68109 164 ft 10 kts 170°
2026-04-26 13:14 41.25542 -8.68092 165 ft 10 kts 169°
2026-04-26 13:14 41.25474 -8.68070 168 ft 10 kts 167°
2026-04-26 13:14 41.25408 -8.68053 172 ft 10 kts 169°
2026-04-26 13:14 41.25343 -8.68034 174 ft 9 kts 167°
2026-04-26 13:15 41.25280 -8.68016 176 ft 9 kts 168°
2026-04-26 13:15 41.25218 -8.68001 179 ft 9 kts 169°
2026-04-26 13:15 41.25158 -8.67989 182 ft 9 kts 172°
2026-04-26 13:15 41.25119 -8.67978 183 ft 8 kts 166°
2026-04-26 13:16 41.25031 -8.67949 186 ft 13 kts 166°
2026-04-26 13:16 41.24926 -8.67915 196 ft 18 kts 166°
2026-04-26 13:16 41.24800 -8.67849 198 ft 19 kts 155°
2026-04-26 13:16 41.24673 -8.67800 207 ft 19 kts 169°
2026-04-26 13:17 41.24426 -8.67735 222 ft 18 kts 168°
2026-04-26 13:17 41.24309 -8.67700 228 ft 17 kts 157°
2026-04-26 13:18 41.24275 -8.67661 229 ft 0 kts 123°
2026-04-26 13:19 41.24270 -8.67651 229 ft 3 kts 123°
2026-04-26 13:20 41.24252 -8.67620 232 ft 5 kts 129°
2026-04-26 13:20 41.24218 -8.67584 238 ft 8 kts 152°
2026-04-26 13:20 41.24145 -8.67558 237 ft 13 kts 170°
2026-04-26 13:20 41.24053 -8.67536 236 ft 13 kts 167°
2026-04-26 13:21 41.23966 -8.67511 236 ft 13 kts 168°
2026-04-26 13:21 41.23924 -8.67499 237 ft 0 kts 168°
2026-04-26 13:21 41.23889 -8.67489 236 ft 7 kts 168°
2026-04-26 13:21 41.23859 -8.67451 237 ft 7 kts 97°
2026-04-26 13:22 41.23867 -8.67398 237 ft 5 kts 78°
2026-04-26 13:22 41.23868 -8.67395 238 ft 1 kts 79°
2026-04-26 13:22 41.23869 -8.67385 237 ft 1 kts 78°
2026-04-26 13:22 41.23870 -8.67390 238 ft 0 kts 79°